TimeCDT,TemperatureF,Dew PointF,Humidity,Sea Level PressureIn,VisibilityMPH,Wind Direction,Wind SpeedMPH,Gust SpeedMPH,PrecipitationIn,Events,Conditions,WindDirDegrees,DateUTC
12:15 AM,55.4,53.6,94,30.10,7.0,Calm,Calm,-,N/A,,Clear,0,2012-09-30 05:15:00
12:55 AM,53.6,53.6,100,30.10,4.0,Calm,Calm,-,N/A,,Clear,0,2012-09-30 05:55:00
1:15 AM,55.4,53.6,94,30.09,5.0,Calm,Calm,-,N/A,,Clear,0,2012-09-30 06:15:00
1:35 AM,53.6,53.6,100,30.09,1.8,WNW,3.5,-,N/A,,Mist,300,2012-09-30 06:35:00
1:55 AM,53.6,53.6,100,30.09,3.0,Calm,Calm,-,N/A,,Clear,0,2012-09-30 06:55:00
2:15 AM,53.6,53.6,100,30.09,2.5,NNW,3.5,-,N/A,,Clear,340,2012-09-30 07:15:00
2:35 AM,53.6,53.6,100,30.09,5.0,North,3.5,-,N/A,,Scattered Clouds,350,2012-09-30 07:35:00
2:55 AM,55.4,55.4,100,30.09,5.0,Calm,Calm,-,N/A,,Mostly Cloudy,0,2012-09-30 07:55:00
3:15 AM,55.4,55.4,100,30.09,5.0,Calm,Calm,-,N/A,,Overcast,0,2012-09-30 08:15:00
3:35 AM,55.4,55.4,100,30.08,5.0,Calm,Calm,-,N/A,,Overcast,0,2012-09-30 08:35:00
3:55 AM,57.2,55.4,94,30.08,3.0,North,3.5,-,N/A,,Overcast,360,2012-09-30 08:55:00
4:15 AM,55.4,55.4,100,30.07,3.0,Calm,Calm,-,N/A,,Overcast,0,2012-09-30 09:15:00
4:35 AM,55.4,55.4,100,30.07,3.0,Calm,Calm,-,N/A,,Overcast,0,2012-09-30 09:35:00
4:55 AM,55.4,55.4,100,30.07,3.0,NNW,3.5,-,N/A,,Overcast,330,2012-09-30 09:55:00
5:15 AM,55.4,55.4,100,30.07,3.0,Calm,Calm,-,N/A,,Overcast,0,2012-09-30 10:15:00
5:35 AM,55.4,55.4,100,30.07,3.0,NNW,3.5,-,N/A,,Mostly Cloudy,340,2012-09-30 10:35:00
5:55 AM,53.6,53.6,100,30.07,1.2,NW,4.6,-,N/A,,Mostly Cloudy,310,2012-09-30 10:55:00
6:15 AM,55.4,55.4,100,30.07,0.8,NW,4.6,-,N/A,,Overcast,320,2012-09-30 11:15:00
6:35 AM,55.4,55.4,100,30.06,1.2,NW,3.5,-,N/A,,Overcast,310,2012-09-30 11:35:00
6:55 AM,57.2,55.4,94,30.06,2.0,Calm,Calm,-,N/A,,Overcast,0,2012-09-30 11:55:00
7:15 AM,57.2,55.4,94,30.06,3.0,NNW,4.6,-,N/A,,Overcast,330,2012-09-30 12:15:00
7:35 AM,55.4,55.4,100,30.06,2.5,Calm,Calm,-,N/A,,Overcast,0,2012-09-30 12:35:00
7:55 AM,55.4,55.4,100,30.06,1.8,Calm,Calm,-,N/A,,Overcast,0,2012-09-30 12:55:00
8:15 AM,55.4,55.4,100,30.07,1.5,NNW,3.5,-,N/A,,Overcast,340,2012-09-30 13:15:00
8:35 AM,55.4,55.4,100,30.07,0.5,NW,3.5,-,N/A,Fog,Fog,320,2012-09-30 13:35:00
8:55 AM,55.4,55.4,100,30.07,0.8,Calm,Calm,-,N/A,,Overcast,0,2012-09-30 13:55:00
9:15 AM,57.2,55.4,94,30.08,1.2,WNW,3.5,-,N/A,,Overcast,300,2012-09-30 14:15:00
9:35 AM,59.0,59.0,100,30.08,1.5,WNW,3.5,-,N/A,,Overcast,290,2012-09-30 14:35:00
9:55 AM,59.0,59.0,100,30.08,1.5,West,4.6,-,N/A,,Overcast,280,2012-09-30 14:55:00
10:15 AM,59.0,59.0,100,30.09,4.0,NW,4.6,-,N/A,,Overcast,310,2012-09-30 15:15:00
10:35 AM,60.8,59.0,94,30.09,7.0,WNW,6.9,-,N/A,,Overcast,290,2012-09-30 15:35:00
10:55 AM,62.6,59.0,88,30.08,10.0,WNW,4.6,-,N/A,,Overcast,290,2012-09-30 15:55:00
11:15 AM,64.4,59.0,83,30.08,10.0,West,6.9,-,N/A,,Mostly Cloudy,270,2012-09-30 16:15:00
11:35 AM,68.0,60.8,78,30.07,10.0,West,4.6,-,N/A,,Scattered Clouds,280,2012-09-30 16:35:00
12:15 PM,69.8,59.0,68,30.06,10.0,WSW,4.6,-,N/A,,Scattered Clouds,250,2012-09-30 17:15:00
12:35 PM,69.8,57.2,64,30.06,10.0,NW,5.8,-,N/A,,Scattered Clouds,310,2012-09-30 17:35:00
12:55 PM,69.8,55.4,60,30.05,10.0,NW,4.6,-,N/A,,Mostly Cloudy,310,2012-09-30 17:55:00
1:15 PM,69.8,55.4,60,30.04,10.0,NW,5.8,-,N/A,,Scattered Clouds,320,2012-09-30 18:15:00
1:35 PM,71.6,55.4,57,30.04,10.0,Calm,Calm,-,N/A,,Clear,0,2012-09-30 18:35:00
1:55 PM,71.6,57.2,60,30.03,10.0,NNW,6.9,-,N/A,,Mostly Cloudy,330,2012-09-30 18:55:00
2:15 PM,73.4,59.0,61,30.01,10.0,West,6.9,-,N/A,,Mostly Cloudy,270,2012-09-30 19:15:00
2:35 PM,73.4,55.4,53,30.00,10.0,NNW,4.6,-,N/A,,Mostly Cloudy,340,2012-09-30 19:35:00
3:15 PM,73.4,53.6,50,29.99,10.0,North,9.2,-,N/A,,Mostly Cloudy,350,2012-09-30 20:15:00
3:35 PM,73.4,51.8,47,29.99,10.0,NW,4.6,-,N/A,,Scattered Clouds,320,2012-09-30 20:35:00
3:55 PM,75.2,50.0,41,29.98,10.0,NNE,5.8,-,N/A,,Scattered Clouds,20,2012-09-30 20:55:00
4:15 PM,77.0,51.8,41,29.97,10.0,NE,6.9,-,N/A,,Scattered Clouds,40,2012-09-30 21:15:00
4:35 PM,77.0,50.0,39,29.96,10.0,WNW,3.5,-,N/A,,Scattered Clouds,300,2012-09-30 21:35:00
4:55 PM,77.0,51.8,41,29.95,10.0,Calm,Calm,-,N/A,,Scattered Clouds,0,2012-09-30 21:55:00
5:15 PM,77.0,50.0,39,29.95,10.0,Calm,Calm,-,N/A,,Scattered Clouds,0,2012-09-30 22:15:00
5:35 PM,77.0,50.0,39,29.96,10.0,NNE,6.9,-,N/A,,Mostly Cloudy,30,2012-09-30 22:35:00
5:55 PM,77.0,50.0,39,29.97,10.0,NE,8.1,-,N/A,,Scattered Clouds,50,2012-09-30 22:55:00
6:15 PM,77.0,48.2,36,29.97,10.0,North,4.6,-,N/A,,Clear,10,2012-09-30 23:15:00
6:35 PM,73.4,51.8,47,29.99,10.0,North,6.9,-,N/A,Thunderstorm,Clear,10,2012-09-30 23:35:00
6:55 PM,73.4,53.6,50,29.99,10.0,North,6.9,-,N/A,,Clear,360,2012-09-30 23:55:00
7:15 PM,73.4,53.6,50,30.00,10.0,North,9.2,-,N/A,,Scattered Clouds,350,2012-10-01 00:15:00
7:35 PM,69.8,50.0,49,30.00,10.0,NNW,15.0,25.3,N/A,,Mostly Cloudy,330,2012-10-01 00:35:00
8:15 PM,68.0,50.0,52,29.99,10.0,WNW,9.2,-,N/A,,Scattered Clouds,300,2012-10-01 01:15:00
8:35 PM,64.4,50.0,59,29.98,10.0,NW,3.5,-,N/A,,Clear,310,2012-10-01 01:35:00
9:15 PM,62.6,48.2,59,29.99,10.0,Calm,Calm,-,N/A,,Clear,0,2012-10-01 02:15:00
9:35 PM,62.6,50.0,63,29.99,10.0,Calm,Calm,-,N/A,,Clear,0,2012-10-01 02:35:00
9:55 PM,60.8,50.0,68,29.99,10.0,North,4.6,-,N/A,,Clear,10,2012-10-01 02:55:00
10:15 PM,60.8,50.0,68,29.99,10.0,Calm,Calm,-,N/A,,Clear,0,2012-10-01 03:15:00
10:35 PM,59.0,51.8,77,30.01,10.0,NNE,4.6,-,N/A,,Clear,30,2012-10-01 03:35:00
11:15 PM,59.0,51.8,77,30.03,10.0,Calm,Calm,-,N/A,,Clear,0,2012-10-01 04:15:00
11:35 PM,59.0,51.8,77,30.03,10.0,North,3.5,-,N/A,,Clear,10,2012-10-01 04:35:00